| time (UTC) | temp F | wind direction | speed MPH | gust MPH | rain 1hr in | rain 24hr in | rain mn in | humidity % | barometer mb |
| 20260831120555 | 70 | 225 | 1.0 | 4.0 | 0.00 | 0.00 | 0.00 | 95 | 1009.5 |
| 20260831120151 | 69 | 191 | 1.0 | 4.0 | 0.00 | 0.00 | 0.00 | 95 | 1009.4 |
| 20260831115552 | 69 | 215 | 1.0 | 4.0 | 0.00 | 0.00 | 0.00 | 95 | 1009.4 |
| 20260831115055 | 69 | 186 | 1.0 | 4.0 | 0.00 | 0.00 | 0.00 | 95 | 1009.3 |
| 20260831114610 | 69 | 176 | 0.0 | 4.0 | 0.00 | 0.00 | 0.00 | 95 | 1009.3 |
| 20260831114053 | 69 | 262 | 2.0 | 4.0 | 0.00 | 0.00 | 0.00 | 95 | 1009.3 |
| 20260831113553 | 69 | 258 | 2.0 | 4.0 | 0.00 | 0.00 | 0.00 | 95 | 1009.1 |
| 20260831113105 | 69 | 264 | 1.0 | 5.0 | 0.00 | 0.00 | 0.00 | 95 | 1009.1 |
| 20260831112553 | 69 | 186 | 1.0 | 5.0 | 0.00 | 0.00 | 0.00 | 95 | 1009.1 |
| 20260831112056 | 69 | 199 | 2.0 | 5.0 | 0.00 | 0.00 | 0.00 | 95 | 1009.1 |
| 20260831111559 | 69 | 201 | 2.0 | 6.0 | 0.00 | 0.00 | 0.00 | 95 | 1009.0 |
| 20260831111053 | 69 | 198 | 2.0 | 6.0 | 0.00 | 0.00 | 0.00 | 95 | 1009.0 |
| 20260831110553 | 70 | 223 | 1.0 | 6.0 | 0.00 | 0.00 | 0.00 | 95 | 1009.1 |
| 20260831110114 | 70 | 252 | 2.0 | 5.0 | 0.00 | 0.00 | 0.00 | 95 | 1009.2 |
| 20260831105554 | 70 | 266 | 2.0 | 5.0 | 0.00 | 0.00 | 0.00 | 95 | 1009.1 |
| 20260831105057 | 70 | 257 | 1.0 | 6.0 | 0.00 | 0.00 | 0.00 | 95 | 1009.1 |
| 20260831104607 | 70 | 74 | 1.0 | 6.0 | 0.00 | 0.00 | 0.00 | 95 | 1009.1 |
| 20260831104054 | 70 | 226 | 1.0 | 5.0 | 0.00 | 0.00 | 0.00 | 95 | 1009.0 |
| 20260831103553 | 70 | 262 | 2.0 | 5.0 | 0.00 | 0.00 | 0.00 | 95 | 1009.0 |
| 20260831103105 | 70 | 193 | 2.0 | 6.0 | 0.00 | 0.00 | 0.00 | 95 | 1009.1 |
| 20260831102553 | 70 | 255 | 1.0 | 6.0 | 0.00 | 0.00 | 0.00 | 95 | 1009.2 |
| 20260831102056 | 70 | 141 | 1.0 | 6.0 | 0.00 | 0.00 | 0.00 | 95 | 1009.2 |
| 20260831101605 | 70 | 256 | 1.0 | 5.0 | 0.00 | 0.00 | 0.00 | 95 | 1009.2 |
| 20260831101053 | 70 | 205 | 1.0 | 5.0 | 0.00 | 0.00 | 0.00 | 95 | 1009.3 |
| 20260831100552 | 70 | 190 | 2.0 | 5.0 | 0.00 | 0.00 | 0.00 | 95 | 1009.2 |
| 20260831100120 | 70 | 137 | 1.0 | 5.0 | 0.00 | 0.00 | 0.00 | 95 | 1009.2 |
| 20260831095552 | 70 | 0 | 2.0 | 5.0 | 0.00 | 0.00 | 0.00 | 95 | 1009.2 |
| 20260831095052 | 70 | 203 | 2.0 | 5.0 | 0.00 | 0.00 | 0.00 | 95 | 1009.1 |
| 20260831094604 | 70 | 170 | 2.0 | 7.0 | 0.00 | 0.00 | 0.00 | 95 | 1009.2 |
| 20260831094053 | 70 | 221 | 2.0 | 7.0 | 0.00 | 0.00 | 0.00 | 95 | 1009.3 |
| 20260831093553 | 70 | 328 | 2.0 | 6.0 | 0.00 | 0.00 | 0.00 | 95 | 1009.3 |
| 20260831093107 | 70 | 213 | 2.0 | 4.0 | 0.00 | 0.00 | 0.00 | 95 | 1009.2 |
| 20260831092552 | 70 | 122 | 1.0 | 5.0 | 0.00 | 0.00 | 0.00 | 95 | 1009.1 |
| 20260831092059 | 70 | 185 | 1.0 | 5.0 | 0.00 | 0.00 | 0.00 | 95 | 1009.1 |
| 20260831091613 | 70 | 240 | 2.0 | 6.0 | 0.00 | 0.00 | 0.00 | 95 | 1009.1 |
| 20260831091053 | 70 | 198 | 1.0 | 6.0 | 0.00 | 0.00 | 0.00 | 95 | 1009.1 |
| 20260831090627 | 70 | 77 | 1.0 | 8.0 | 0.00 | 0.00 | 0.00 | 95 | 1009.0 |
| 20260831090105 | 70 | 176 | 1.0 | 8.0 | 0.00 | 0.00 | 0.00 | 95 | 1009.0 |
| 20260831085556 | 70 | 236 | 2.0 | 5.0 | 0.00 | 0.00 | 0.00 | 95 | 1009.0 |
| 20260831085059 | 70 | 354 | 2.0 | 5.0 | 0.00 | 0.00 | 0.00 | 95 | 1008.9 |
| 20260831084611 | 70 | 206 | 1.0 | 5.0 | 0.00 | 0.00 | 0.00 | 95 | 1009.0 |
| 20260831084055 | 70 | 182 | 1.0 | 5.0 | 0.00 | 0.00 | 0.00 | 95 | 1008.9 |
| 20260831083552 | 70 | 137 | 1.0 | 5.0 | 0.00 | 0.00 | 0.00 | 95 | 1008.9 |
| 20260831083100 | 70 | 202 | 1.0 | 6.0 | 0.00 | 0.00 | 0.00 | 94 | 1008.9 |
| 20260831082553 | 70 | 261 | 1.0 | 6.0 | 0.00 | 0.00 | 0.00 | 94 | 1008.8 |
| 20260831082053 | 71 | 167 | 1.0 | 6.0 | 0.00 | 0.00 | 0.00 | 94 | 1008.9 |
| 20260831081610 | 70 | 193 | 2.0 | 6.0 | 0.00 | 0.00 | 0.00 | 94 | 1008.8 |
| 20260831081053 | 70 | 121 | 1.0 | 6.0 | 0.00 | 0.00 | 0.00 | 94 | 1008.7 |
| 20260831080552 | 71 | 149 | 2.0 | 6.0 | 0.00 | 0.00 | 0.00 | 94 | 1008.8 |
| 20260831080107 | 71 | 266 | 2.0 | 5.0 | 0.00 | 0.00 | 0.00 | 94 | 1008.8 |
| 20260831075555 | 71 | 250 | 1.0 | 4.0 | 0.00 | 0.00 | 0.00 | 94 | 1008.7 |
| 20260831075053 | 71 | 134 | 1.0 | 4.0 | 0.00 | 0.00 | 0.00 | 94 | 1008.8 |
| 20260831074605 | 71 | 141 | 1.0 | 4.0 | 0.00 | 0.00 | 0.00 | 94 | 1008.9 |
| 20260831074054 | 71 | 194 | 1.0 | 4.0 | 0.00 | 0.00 | 0.00 | 94 | 1008.9 |
| 20260831073553 | 71 | 223 | 1.0 | 4.0 | 0.00 | 0.00 | 0.00 | 94 | 1009.0 |
| 20260831073108 | 70 | 201 | 0.0 | 4.0 | 0.00 | 0.00 | 0.00 | 94 | 1009.0 |
| 20260831072553 | 71 | 189 | 1.0 | 4.0 | 0.00 | 0.00 | 0.00 | 94 | 1009.1 |
| 20260831072056 | 71 | 188 | 2.0 | 4.0 | 0.00 | 0.00 | 0.00 | 94 | 1009.2 |
| 20260831071615 | 71 | 195 | 1.0 | 5.0 | 0.00 | 0.00 | 0.00 | 93 | 1009.4 |
| 20260831071053 | 71 | 215 | 2.0 | 5.0 | 0.00 | 0.00 | 0.00 | 93 | 1009.4 |
| 20260831070553 | 71 | 128 | 1.0 | 4.0 | 0.00 | 0.00 | 0.00 | 93 | 1009.5 |
| 20260831070110 | 71 | 176 | 1.0 | 5.0 | 0.00 | 0.00 | 0.00 | 93 | 1009.6 |
| 20260831065553 | 71 | 101 | 1.0 | 5.0 | 0.00 | 0.00 | 0.00 | 93 | 1009.4 |
| 20260831065053 | 71 | 103 | 2.0 | 6.0 | 0.00 | 0.00 | 0.00 | 93 | 1009.5 |
| 20260831064603 | 71 | 162 | 2.0 | 6.0 | 0.00 | 0.00 | 0.00 | 93 | 1009.4 |
| 20260831064054 | 71 | 156 | 1.0 | 5.0 | 0.00 | 0.00 | 0.00 | 93 | 1009.3 |
| 20260831063552 | 71 | 288 | 2.0 | 5.0 | 0.00 | 0.00 | 0.00 | 93 | 1009.5 |
| 20260831063104 | 71 | 183 | 1.0 | 6.0 | 0.00 | 0.00 | 0.00 | 93 | 1009.6 |
| 20260831062553 | 71 | 155 | 1.0 | 6.0 | 0.00 | 0.00 | 0.00 | 92 | 1009.5 |
| 20260831062054 | 71 | 0 | 1.0 | 4.0 | 0.00 | 0.00 | 0.00 | 92 | 1009.6 |
| 20260831061610 | 71 | 196 | 0.0 | 4.0 | 0.00 | 0.00 | 0.00 | 92 | 1009.7 |
| 20260831061056 | 71 | 183 | 1.0 | 4.0 | 0.00 | 0.00 | 0.00 | 92 | 1009.9 |
| 20260831060553 | 71 | 0 | 0.0 | 3.0 | 0.00 | 0.00 | 0.00 | 92 | 1009.9 |
| 20260831060151 | 71 | 152 | 1.0 | 3.0 | 0.00 | 0.00 | 0.00 | 92 | 1009.9 |
| 20260831055556 | 71 | 0 | 1.0 | 4.0 | 0.00 | 0.00 | 0.00 | 92 | 1009.8 |
| 20260831055053 | 71 | 191 | 1.0 | 4.0 | 0.00 | 0.00 | 0.00 | 92 | 1009.9 |
| 20260831054604 | 71 | 144 | 2.0 | 4.0 | 0.00 | 0.00 | 0.00 | 92 | 1010.0 |
| 20260831054053 | 71 | 186 | 1.0 | 4.0 | 0.00 | 0.00 | 0.00 | 92 | 1010.0 |
| 20260831053553 | 71 | 214 | 1.0 | 4.0 | 0.00 | 0.00 | 0.00 | 92 | 1009.9 |
| 20260831053126 | 71 | 195 | 1.0 | 4.0 | 0.00 | 0.00 | 0.00 | 92 | 1009.9 |
| 20260831052556 | 71 | 137 | 1.0 | 4.0 | 0.00 | 0.00 | 0.00 | 92 | 1010.0 |
| 20260831052056 | 71 | 219 | 1.0 | 4.0 | 0.00 | 0.00 | 0.00 | 92 | 1010.1 |
| 20260831051607 | 71 | 176 | 1.0 | 4.0 | 0.00 | 0.00 | 0.00 | 91 | 1010.3 |
| 20260831051053 | 71 | 198 | 1.0 | 4.0 | 0.00 | 0.00 | 0.00 | 91 | 1010.2 |
| 20260831050552 | 71 | 152 | 1.0 | 3.0 | 0.00 | 0.00 | 0.00 | 91 | 1010.2 |
| 20260831050129 | 71 | 260 | 1.0 | 3.0 | 0.00 | 0.00 | 0.00 | 91 | 1010.3 |
| 20260831045552 | 71 | 195 | 0.0 | 3.0 | 0.00 | 0.00 | 0.00 | 91 | 1010.1 |
| 20260831045055 | 71 | 0 | 0.0 | 3.0 | 0.00 | 0.00 | 0.00 | 91 | 1010.0 |
| 20260831044608 | 71 | 0 | 0.0 | 3.0 | 0.00 | 0.00 | 0.00 | 91 | 1010.1 |
| 20260831044056 | 71 | 205 | 0.0 | 3.0 | 0.00 | 0.00 | 0.00 | 90 | 1010.1 |
| 20260831043552 | 71 | 106 | 0.0 | 3.0 | 0.00 | 0.00 | 0.00 | 90 | 1010.2 |
| 20260831043105 | 71 | 0 | 0.0 | 3.0 | 0.00 | 0.00 | 0.00 | 90 | 1010.1 |
| 20260831042552 | 71 | 167 | 0.0 | 4.0 | 0.00 | 0.00 | 0.00 | 90 | 1010.1 |
| 20260831042052 | 71 | 212 | 1.0 | 4.0 | 0.00 | 0.00 | 0.00 | 90 | 1010.2 |
| 20260831041615 | 71 | 210 | 1.0 | 4.0 | 0.00 | 0.00 | 0.00 | 90 | 1010.2 |
| 20260831041053 | 71 | 141 | 1.0 | 4.0 | 0.00 | 0.00 | 0.00 | 90 | 1010.3 |
| 20260831040553 | 71 | 169 | 1.0 | 4.0 | 0.00 | 0.00 | 0.00 | 90 | 1010.2 |
| 20260831040107 | 71 | 0 | 1.0 | 4.0 | 0.00 | 0.00 | 0.00 | 90 | 1010.2 |
| 20260831035555 | 71 | 126 | 0.0 | 2.0 | 0.00 | 0.00 | 0.00 | 89 | 1010.1 |
| 20260831035052 | 71 | 187 | 0.0 | 4.0 | 0.00 | 0.00 | 0.00 | 89 | 1010.1 |
| 20260831034609 | 71 | 174 | 0.0 | 4.0 | 0.00 | 0.00 | 0.00 | 89 | 1010.0 |
| 20260831034058 | 71 | 51 | 1.0 | 4.0 | 0.00 | 0.00 | 0.00 | 89 | 1010.2 |
| 20260831033555 | 71 | 247 | 1.0 | 4.0 | 0.00 | 0.00 | 0.00 | 89 | 1010.1 |
| 20260831033112 | 71 | 130 | 0.0 | 4.0 | 0.00 | 0.00 | 0.00 | 89 | 1010.1 |
| 20260831032554 | 71 | 127 | 1.0 | 5.0 | 0.00 | 0.00 | 0.00 | 89 | 1010.1 |
| 20260831032054 | 71 | 176 | 0.0 | 5.0 | 0.00 | 0.00 | 0.00 | 89 | 1010.2 |
| 20260831031607 | 71 | 217 | 0.0 | 4.0 | 0.00 | 0.00 | 0.00 | 88 | 1010.3 |
| 20260831031052 | 71 | 134 | 0.0 | 4.0 | 0.00 | 0.00 | 0.00 | 88 | 1010.4 |
| 20260831030554 | 71 | 243 | 1.0 | 3.0 | 0.00 | 0.00 | 0.00 | 88 | 1010.5 |
| 20260831030104 | 71 | 248 | 0.0 | 3.0 | 0.00 | 0.00 | 0.00 | 88 | 1010.4 |
| 20260831025552 | 71 | 202 | 1.0 | 4.0 | 0.00 | 0.00 | 0.00 | 88 | 1010.6 |
| 20260831025052 | 71 | 210 | 1.0 | 4.0 | 0.00 | 0.00 | 0.00 | 88 | 1010.6 |
| 20260831024608 | 71 | 198 | 0.0 | 3.0 | 0.00 | 0.00 | 0.00 | 88 | 1010.6 |
| 20260831024051 | 72 | 159 | 0.0 | 5.0 | 0.00 | 0.00 | 0.00 | 88 | 1010.7 |
| 20260831023600 | 72 | 285 | 0.0 | 5.0 | 0.00 | 0.00 | 0.00 | 87 | 1010.7 |
| 20260831023103 | 72 | 215 | 1.0 | 5.0 | 0.00 | 0.00 | 0.00 | 87 | 1010.7 |
| 20260831022551 | 72 | 0 | 0.0 | 4.0 | 0.00 | 0.00 | 0.00 | 87 | 1010.8 |
| 20260831022056 | 72 | 240 | 1.0 | 4.0 | 0.00 | 0.00 | 0.00 | 87 | 1010.7 |
| 20260831021608 | 72 | 172 | 1.0 | 4.0 | 0.00 | 0.00 | 0.00 | 86 | 1010.8 |
| 20260831021056 | 72 | 193 | 1.0 | 6.0 | 0.00 | 0.00 | 0.00 | 86 | 1010.8 |
| 20260831020556 | 72 | 166 | 2.0 | 6.0 | 0.00 | 0.00 | 0.00 | 86 | 1010.7 |
| 20260831020113 | 72 | 215 | 1.0 | 5.0 | 0.00 | 0.00 | 0.00 | 85 | 1010.7 |
| 20260831015555 | 73 | 214 | 1.0 | 5.0 | 0.00 | 0.00 | 0.00 | 85 | 1010.7 |
| 20260831015052 | 73 | 160 | 0.0 | 6.0 | 0.00 | 0.00 | 0.00 | 85 | 1010.7 |
| 20260831014604 | 73 | 0 | 1.0 | 7.0 | 0.00 | 0.00 | 0.00 | 84 | 1010.6 |
| 20260831014052 | 73 | 115 | 2.0 | 7.0 | 0.00 | 0.00 | 0.00 | 84 | 1010.5 |
| 20260831013553 | 73 | 174 | 2.0 | 9.0 | 0.00 | 0.00 | 0.00 | 84 | 1010.5 |
| 20260831013110 | 73 | 212 | 2.0 | 9.0 | 0.00 | 0.00 | 0.00 | 83 | 1010.5 |
| 20260831012556 | 74 | 158 | 3.0 | 9.0 | 0.00 | 0.00 | 0.00 | 83 | 1010.4 |
| 20260831012054 | 74 | 127 | 2.0 | 6.0 | 0.00 | 0.00 | 0.00 | 83 | 1010.3 |
| 20260831011558 | 74 | 209 | 2.0 | 6.0 | 0.00 | 0.00 | 0.00 | 83 | 1010.1 |
| 20260831011053 | 74 | 184 | 1.0 | 6.0 | 0.00 | 0.00 | 0.00 | 82 | 1010.1 |
| 20260831010552 | 74 | 186 | 2.0 | 6.0 | 0.00 | 0.00 | 0.00 | 82 | 1010.1 |
| 20260831010107 | 74 | 192 | 2.0 | 6.0 | 0.00 | 0.00 | 0.00 | 82 | 1010.1 |
| 20260831005552 | 75 | 136 | 1.0 | 6.0 | 0.00 | 0.00 | 0.00 | 82 | 1010.1 |
| 20260831005052 | 75 | 103 | 2.0 | 6.0 | 0.00 | 0.00 | 0.00 | 81 | 1010.1 |
| 20260831004605 | 75 | 44 | 2.0 | 6.0 | 0.00 | 0.00 | 0.00 | 81 | 1010.1 |
| 20260831004052 | 75 | 226 | 2.0 | 6.0 | 0.00 | 0.00 | 0.00 | 81 | 1009.9 |
| 20260831003555 | 75 | 213 | 2.0 | 7.0 | 0.00 | 0.00 | 0.00 | 81 | 1009.9 |
| 20260831003059 | 76 | 131 | 1.0 | 7.0 | 0.00 | 0.00 | 0.00 | 80 | 1009.9 |
| 20260831002555 | 76 | 212 | 2.0 | 12.0 | 0.00 | 0.00 | 0.00 | 79 | 1010.0 |
| 20260831002054 | 76 | 215 | 2.0 | 12.0 | 0.00 | 0.00 | 0.00 | 79 | 1010.0 |
| 20260831001607 | 77 | 174 | 3.0 | 12.0 | 0.00 | 0.00 | 0.00 | 78 | 1010.0 |
| 20260831001057 | 77 | 73 | 3.0 | 8.0 | 0.00 | 0.00 | 0.00 | 78 | 1010.0 |
| 20260831000555 | 77 | 129 | 1.0 | 7.0 | 0.00 | 0.00 | 0.00 | 77 | 1009.9 |
| 20260831000113 | 78 | 152 | 1.0 | 8.0 | 0.00 | 0.00 | 0.00 | 76 | 1010.0 |
| 20260830235552 | 78 | 231 | 2.0 | 8.0 | 0.00 | 0.00 | 0.00 | 76 | 1010.1 |
| 20260830235053 | 78 | 190 | 2.0 | 8.0 | 0.00 | 0.00 | 0.00 | 74 | 1010.1 |
| 20260830234604 | 79 | 77 | 1.0 | 11.0 | 0.00 | 0.00 | 0.00 | 73 | 1010.1 |
| 20260830234052 | 79 | 118 | 3.0 | 11.0 | 0.00 | 0.00 | 0.00 | 72 | 1010.1 |
| 20260830233552 | 79 | 165 | 2.0 | 11.0 | 0.00 | 0.00 | 0.00 | 71 | 1010.0 |
| 20260830233102 | 79 | 116 | 2.0 | 10.0 | 0.00 | 0.00 | 0.00 | 70 | 1010.0 |
| 20260830232555 | 80 | 198 | 2.0 | 10.0 | 0.00 | 0.00 | 0.00 | 69 | 1010.0 |
| 20260830232053 | 80 | 206 | 2.0 | 7.0 | 0.00 | 0.00 | 0.00 | 68 | 1010.1 |
| 20260830231609 | 80 | 281 | 2.0 | 7.0 | 0.00 | 0.00 | 0.00 | 70 | 1010.1 |
| 20260830231051 | 81 | 202 | 2.0 | 6.0 | 0.00 | 0.00 | 0.00 | 69 | 1010.1 |
| 20260830230554 | 81 | 60 | 1.0 | 7.0 | 0.00 | 0.00 | 0.00 | 70 | 1010.1 |
| 20260830230107 | 82 | 131 | 1.0 | 7.0 | 0.00 | 0.00 | 0.00 | 69 | 1010.1 |
| 20260830225552 | 83 | 151 | 3.0 | 8.0 | 0.00 | 0.00 | 0.00 | 67 | 1009.9 |
| 20260830225052 | 84 | 213 | 1.0 | 8.0 | 0.00 | 0.00 | 0.00 | 68 | 1009.9 |
| 20260830224601 | 85 | 124 | 3.0 | 8.0 | 0.00 | 0.00 | 0.00 | 66 | 1009.8 |
| 20260830224055 | 85 | 90 | 1.0 | 5.0 | 0.00 | 0.00 | 0.00 | 68 | 1009.6 |
| 20260830223552 | 85 | 198 | 1.0 | 5.0 | 0.00 | 0.00 | 0.00 | 68 | 1009.5 |
| 20260830223102 | 85 | 182 | 1.0 | 4.0 | 0.00 | 0.00 | 0.00 | 70 | 1009.5 |
| 20260830222554 | 85 | 117 | 2.0 | 8.0 | 0.00 | 0.00 | 0.00 | 69 | 1009.6 |
| 20260830222053 | 85 | 186 | 2.0 | 8.0 | 0.00 | 0.00 | 0.00 | 67 | 1009.5 |
| 20260830221605 | 85 | 189 | 2.0 | 6.0 | 0.00 | 0.00 | 0.00 | 67 | 1009.6 |
| 20260830221054 | 85 | 57 | 2.0 | 6.0 | 0.00 | 0.00 | 0.00 | 67 | 1009.6 |
| 20260830220554 | 86 | 183 | 2.0 | 7.0 | 0.00 | 0.00 | 0.00 | 66 | 1009.7 |
| 20260830220111 | 86 | 144 | 2.0 | 8.0 | 0.00 | 0.00 | 0.00 | 67 | 1009.7 |
| 20260830215554 | 85 | 106 | 1.0 | 8.0 | 0.00 | 0.00 | 0.00 | 67 | 1009.6 |
| 20260830215054 | 85 | 184 | 2.0 | 8.0 | 0.00 | 0.00 | 0.00 | 69 | 1009.6 |
| 20260830214608 | 84 | 200 | 2.0 | 8.0 | 0.00 | 0.00 | 0.00 | 69 | 1009.7 |
| 20260830214055 | 84 | 141 | 3.0 | 8.0 | 0.00 | 0.00 | 0.00 | 69 | 1009.8 |
| 20260830213554 | 84 | 249 | 2.0 | 7.0 | 0.00 | 0.00 | 0.00 | 69 | 1009.6 |
| 20260830213100 | 84 | 125 | 3.0 | 7.0 | 0.00 | 0.00 | 0.00 | 69 | 1009.7 |
| 20260830212555 | 84 | 133 | 2.0 | 10.0 | 0.00 | 0.00 | 0.00 | 67 | 1009.7 |
| 20260830212054 | 85 | 240 | 3.0 | 10.0 | 0.00 | 0.00 | 0.00 | 66 | 1009.6 |
| 20260830211624 | 85 | 130 | 2.0 | 8.0 | 0.00 | 0.00 | 0.00 | 68 | 1009.5 |
| 20260830211054 | 85 | 146 | 1.0 | 8.0 | 0.00 | 0.00 | 0.00 | 66 | 1009.5 |
| 20260830210555 | 85 | 104 | 1.0 | 8.0 | 0.00 | 0.00 | 0.00 | 65 | 1009.4 |
| 20260830210113 | 87 | 136 | 2.0 | 6.0 | 0.00 | 0.00 | 0.00 | 65 | 1009.3 |
| 20260830205554 | 87 | 196 | 1.0 | 7.0 | 0.00 | 0.00 | 0.00 | 66 | 1009.4 |
| 20260830205055 | 87 | 131 | 2.0 | 7.0 | 0.00 | 0.00 | 0.00 | 66 | 1009.4 |
| 20260830204603 | 87 | 187 | 2.0 | 7.0 | 0.00 | 0.00 | 0.00 | 65 | 1009.5 |
| 20260830204054 | 86 | 191 | 3.0 | 7.0 | 0.00 | 0.00 | 0.00 | 66 | 1009.4 |
| 20260830203554 | 86 | 79 | 3.0 | 7.0 | 0.00 | 0.00 | 0.00 | 66 | 1009.5 |
| 20260830203100 | 87 | 156 | 2.0 | 10.0 | 0.00 | 0.00 | 0.00 | 65 | 1009.5 |
| 20260830202554 | 87 | 81 | 3.0 | 10.0 | 0.00 | 0.00 | 0.00 | 66 | 1009.5 |
| 20260830202054 | 87 | 259 | 4.0 | 9.0 | 0.00 | 0.00 | 0.00 | 65 | 1009.5 |
| 20260830201608 | 87 | 131 | 3.0 | 9.0 | 0.00 | 0.00 | 0.00 | 65 | 1009.7 |
| 20260830201057 | 87 | 204 | 2.0 | 8.0 | 0.00 | 0.00 | 0.00 | 66 | 1009.7 |
| 20260830200557 | 87 | 187 | 3.0 | 8.0 | 0.00 | 0.00 | 0.00 | 66 | 1009.7 |
| 20260830200105 | 87 | 167 | 3.0 | 8.0 | 0.00 | 0.00 | 0.00 | 67 | 1009.7 |
| 20260830195557 | 87 | 122 | 4.0 | 8.0 | 0.00 | 0.00 | 0.00 | 69 | 1009.7 |
| 20260830195053 | 86 | 183 | 4.0 | 10.0 | 0.00 | 0.00 | 0.00 | 69 | 1009.8 |
| 20260830194604 | 86 | 116 | 3.0 | 10.0 | 0.00 | 0.00 | 0.00 | 69 | 1009.8 |
| 20260830194055 | 86 | 162 | 1.0 | 8.0 | 0.00 | 0.00 | 0.00 | 69 | 1009.7 |
| 20260830193553 | 86 | 255 | 3.0 | 8.0 | 0.00 | 0.00 | 0.00 | 70 | 1009.5 |
| 20260830193059 | 86 | 160 | 4.0 | 8.0 | 0.00 | 0.00 | 0.00 | 70 | 1009.6 |
| 20260830192553 | 86 | 162 | 4.0 | 10.0 | 0.00 | 0.00 | 0.00 | 69 | 1009.8 |
| 20260830192053 | 85 | 129 | 4.0 | 10.0 | 0.00 | 0.00 | 0.00 | 72 | 1009.9 |
| 20260830191606 | 85 | 134 | 6.0 | 10.0 | 0.00 | 0.00 | 0.00 | 68 | 1009.9 |
| 20260830191056 | 86 | 126 | 5.0 | 8.0 | 0.00 | 0.00 | 0.00 | 68 | 1009.7 |
| 20260830190556 | 86 | 151 | 2.0 | 7.0 | 0.00 | 0.00 | 0.00 | 68 | 1009.7 |
| 20260830190124 | 86 | 172 | 3.0 | 7.0 | 0.00 | 0.00 | 0.00 | 66 | 1009.6 |
| 20260830185556 | 86 | 111 | 4.0 | 7.0 | 0.00 | 0.00 | 0.00 | 67 | 1009.6 |
| 20260830185053 | 86 | 108 | 3.0 | 7.0 | 0.00 | 0.00 | 0.00 | 68 | 1009.7 |
| 20260830184606 | 86 | 191 | 3.0 | 7.0 | 0.00 | 0.00 | 0.00 | 69 | 1009.7 |
| 20260830184053 | 85 | 165 | 3.0 | 7.0 | 0.00 | 0.00 | 0.00 | 70 | 1009.7 |
| 20260830183553 | 85 | 131 | 3.0 | 11.0 | 0.00 | 0.00 | 0.00 | 69 | 1009.6 |
| 20260830183108 | 85 | 73 | 3.0 | 11.0 | 0.00 | 0.00 | 0.00 | 72 | 1009.6 |
| 20260830182553 | 85 | 73 | 4.0 | 11.0 | 0.00 | 0.00 | 0.00 | 71 | 1009.4 |
| 20260830182054 | 84 | 81 | 3.0 | 9.0 | 0.00 | 0.00 | 0.00 | 72 | 1009.5 |
| 20260830181608 | 84 | 94 | 3.0 | 9.0 | 0.00 | 0.00 | 0.00 | 72 | 1009.8 |
| 20260830181057 | 83 | 120 | 4.0 | 9.0 | 0.00 | 0.00 | 0.00 | 73 | 1009.7 |
| 20260830180553 | 84 | 75 | 2.0 | 6.0 | 0.00 | 0.00 | 0.00 | 72 | 1009.9 |
| 20260830180116 | 84 | 124 | 3.0 | 5.0 | 0.00 | 0.00 | 0.00 | 72 | 1009.9 |
| 20260830175554 | 83 | 148 | 1.0 | 5.0 | 0.00 | 0.00 | 0.00 | 73 | 1009.9 |
| 20260830175053 | 83 | 139 | 2.0 | 5.0 | 0.00 | 0.00 | 0.00 | 74 | 1009.9 |
| 20260830174611 | 83 | 129 | 1.0 | 5.0 | 0.00 | 0.00 | 0.00 | 72 | 1010.1 |
| 20260830174053 | 83 | 140 | 2.0 | 6.0 | 0.00 | 0.00 | 0.00 | 75 | 1010.0 |
| 20260830173554 | 83 | 210 | 2.0 | 6.0 | 0.00 | 0.00 | 0.00 | 71 | 1010.2 |
| 20260830173128 | 83 | 120 | 2.0 | 6.0 | 0.00 | 0.00 | 0.00 | 74 | 1010.2 |
| 20260830172553 | 82 | 184 | 1.0 | 7.0 | 0.00 | 0.00 | 0.00 | 74 | 1010.6 |
| 20260830172054 | 82 | 155 | 2.0 | 8.0 | 0.00 | 0.00 | 0.00 | 77 | 1010.7 |
| 20260830171618 | 82 | 25 | 1.0 | 8.0 | 0.00 | 0.00 | 0.00 | 75 | 1010.7 |
| 20260830171053 | 81 | 63 | 2.0 | 8.0 | 0.00 | 0.00 | 0.00 | 76 | 1010.7 |
| 20260830170554 | 81 | 148 | 2.0 | 6.0 | 0.00 | 0.00 | 0.00 | 78 | 1010.7 |
| 20260830170109 | 80 | 65 | 3.0 | 6.0 | 0.00 | 0.00 | 0.00 | 79 | 1010.8 |
| 20260830165553 | 80 | 203 | 3.0 | 7.0 | 0.00 | 0.00 | 0.00 | 80 | 1011.1 |
| 20260830165053 | 80 | 140 | 4.0 | 7.0 | 0.00 | 0.00 | 0.00 | 79 | 1011.1 |
| 20260830164604 | 79 | 177 | 3.0 | 6.0 | 0.00 | 0.00 | 0.00 | 79 | 1011.1 |
| 20260830164054 | 79 | 172 | 4.0 | 6.0 | 0.00 | 0.00 | 0.00 | 79 | 1011.1 |
| 20260830163554 | 79 | 140 | 4.0 | 6.0 | 0.00 | 0.00 | 0.00 | 79 | 1010.9 |
| 20260830163104 | 79 | 124 | 2.0 | 5.0 | 0.00 | 0.00 | 0.00 | 79 | 1010.7 |
| 20260830162557 | 79 | 122 | 2.0 | 4.0 | 0.00 | 0.00 | 0.00 | 79 | 1010.6 |
| 20260830162054 | 79 | 134 | 1.0 | 3.0 | 0.00 | 0.00 | 0.00 | 80 | 1010.5 |
| 20260830161609 | 79 | 0 | 1.0 | 4.0 | 0.00 | 0.00 | 0.00 | 80 | 1010.5 |
| 20260830161056 | 79 | 74 | 0.0 | 4.0 | 0.00 | 0.00 | 0.00 | 81 | 1010.6 |
| 20260830160553 | 78 | 92 | 2.0 | 5.0 | 0.00 | 0.00 | 0.00 | 81 | 1010.5 |
| 20260830160108 | 79 | 82 | 1.0 | 5.0 | 0.00 | 0.00 | 0.00 | 80 | 1010.5 |
| 20260830155553 | 79 | 63 | 2.0 | 5.0 | 0.00 | 0.00 | 0.00 | 80 | 1010.4 |
| 20260830155053 | 79 | 134 | 2.0 | 5.0 | 0.00 | 0.00 | 0.00 | 80 | 1010.3 |
| 20260830154557 | 79 | 165 | 1.0 | 5.0 | 0.00 | 0.00 | 0.00 | 81 | 1010.2 |
| 20260830154053 | 79 | 75 | 2.0 | 5.0 | 0.00 | 0.00 | 0.00 | 81 | 1010.0 |
| 20260830153554 | 79 | 56 | 2.0 | 5.0 | 0.00 | 0.00 | 0.00 | 80 | 1010.0 |
| 20260830153058 | 78 | 77 | 3.0 | 6.0 | 0.00 | 0.00 | 0.00 | 79 | 1010.0 |
| 20260830152554 | 78 | 130 | 2.0 | 6.0 | 0.00 | 0.00 | 0.00 | 82 | 1009.9 |
| 20260830152056 | 77 | 97 | 2.0 | 6.0 | 0.00 | 0.00 | 0.00 | 83 | 1009.8 |
| 20260830151611 | 77 | 129 | 2.0 | 5.0 | 0.00 | 0.00 | 0.00 | 82 | 1009.8 |
| 20260830151055 | 77 | 238 | 1.0 | 5.0 | 0.00 | 0.00 | 0.00 | 84 | 1010.0 |
| 20260830150553 | 76 | 130 | 2.0 | 6.0 | 0.00 | 0.00 | 0.00 | 84 | 1010.0 |
| 20260830150108 | 76 | 63 | 2.0 | 6.0 | 0.00 | 0.00 | 0.00 | 85 | 1009.8 |
| 20260830145553 | 75 | 162 | 2.0 | 5.0 | 0.00 | 0.00 | 0.00 | 86 | 1009.9 |
| 20260830145056 | 74 | 56 | 2.0 | 6.0 | 0.00 | 0.00 | 0.00 | 86 | 1009.8 |
| 20260830144604 | 74 | 87 | 2.0 | 6.0 | 0.00 | 0.00 | 0.00 | 88 | 1009.8 |
| 20260830144100 | 73 | 81 | 3.0 | 6.0 | 0.00 | 0.00 | 0.00 | 89 | 1009.9 |
| 20260830143556 | 73 | 74 | 2.0 | 4.0 | 0.00 | 0.00 | 0.00 | 89 | 1009.7 |
| 20260830143057 | 72 | 117 | 2.0 | 4.0 | 0.00 | 0.00 | 0.00 | 92 | 1009.9 |
| 20260830142554 | 71 | 70 | 2.0 | 4.0 | 0.00 | 0.00 | 0.00 | 92 | 1009.7 |
| 20260830142056 | 71 | 159 | 2.0 | 4.0 | 0.00 | 0.00 | 0.00 | 93 | 1009.7 |
| 20260830141604 | 71 | 71 | 0.0 | 2.0 | 0.00 | 0.00 | 0.00 | 94 | 1009.9 |
| 20260830141055 | 70 | 98 | 1.0 | 3.0 | 0.00 | 0.00 | 0.00 | 94 | 1010.1 |
| 20260830140554 | 70 | 90 | 2.0 | 3.0 | 0.00 | 0.00 | 0.00 | 94 | 1010.0 |
| 20260830140108 | 70 | 84 | 2.0 | 4.0 | 0.00 | 0.00 | 0.00 | 94 | 1010.1 |
| 20260830135553 | 70 | 60 | 2.0 | 4.0 | 0.00 | 0.01 | 0.00 | 94 | 1010.0 |
| 20260830135053 | 70 | 61 | 2.0 | 3.0 | 0.00 | 0.01 | 0.00 | 95 | 1010.1 |
| 20260830134603 | 69 | 56 | 1.0 | 3.0 | 0.00 | 0.01 | 0.00 | 95 | 1010.1 |
| 20260830134052 | 69 | 49 | 1.0 | 2.0 | 0.00 | 0.01 | 0.00 | 95 | 1010.2 |
| 20260830133555 | 69 | 62 | 1.0 | 3.0 | 0.00 | 0.01 | 0.00 | 95 | 1010.1 |
| 20260830133122 | 69 | 0 | 0.0 | 3.0 | 0.00 | 0.01 | 0.00 | 96 | 1010.1 |
| 20260830132553 | 68 | 82 | 2.0 | 3.0 | 0.00 | 0.01 | 0.00 | 96 | 1010.0 |
| 20260830132059 | 68 | 71 | 0.0 | 1.0 | 0.00 | 0.01 | 0.00 | 96 | 1010.0 |
| 20260830131606 | 68 | 71 | 0.0 | 1.0 | 0.00 | 0.01 | 0.00 | 96 | 1009.9 |
| 20260830131053 | 67 | 71 | 0.0 | 2.0 | 0.00 | 0.01 | 0.00 | 96 | 1010.0 |
| 20260830130553 | 67 | 0 | 0.0 | 2.0 | 0.00 | 0.01 | 0.00 | 96 | 1010.0 |
| 20260830130106 | 67 | 109 | 0.0 | 1.0 | 0.00 | 0.01 | 0.00 | 96 | 1009.8 |
| 20260830125553 | 67 | 112 | 0.0 | 1.0 | 0.00 | 0.08 | 0.00 | 96 | 1009.9 |
| 20260830125053 | 67 | 0 | 0.0 | 1.0 | 0.00 | 0.08 | 0.00 | 96 | 1009.8 |
| 20260830124603 | 67 | 0 | 0.0 | 1.0 | 0.00 | 0.08 | 0.00 | 97 | 1009.8 |
| 20260830124057 | 66 | 136 | 0.0 | 1.0 | 0.00 | 0.08 | 0.00 | 97 | 1009.8 |
| 20260830123556 | 66 | 137 | 0.0 | 1.0 | 0.00 | 0.08 | 0.00 | 96 | 1010.0 |
| 20260830123106 | 65 | 0 | 0.0 | 1.0 | 0.00 | 0.08 | 0.00 | 96 | 1010.1 |
| 20260830122556 | 65 | 0 | 0.0 | 1.0 | 0.00 | 0.08 | 0.00 | 96 | 1010.0 |
| 20260830122056 | 65 | 137 | 0.0 | 1.0 | 0.00 | 0.08 | 0.00 | 96 | 1009.9 |
| 20260830121608 | 65 | 0 | 0.0 | 1.0 | 0.00 | 0.08 | 0.00 | 96 | 1010.0 |
| 20260830121055 | 65 | 0 | 0.0 | 1.0 | 0.00 | 0.08 | 0.00 | 96 | 1009.9 |